Location: Allentsteig
(48.6833°N, 15.3167°E)
Time: 16:06:22
(UTC+00:00)

Cosmos 1707 - Pass Details

Date: 18 September 2020
Orbit: 515 x 530 km, 82.5° (Epoch: 30 October)

Event Time Altitude Azimuth Distance (km) Brightness Sun altitude
Rises 17:39:57 0° 358° (N) 2,656 6.5 -6.7°
Reaches altitude 10° 17:42:17 10° 9° (N) 1,760 5.4 -7.0°
Maximum altitude 17:45:45 31° 73° (ENE) 923 3.5 -7.6°
Drops below altitude 10° 17:49:12 10° 137° (SE) 1,743 4.9 -8.2°
Enters shadow 17:50:40 - 145° (SE) 2,303 5.6 -8.4°
